Home > Time Zones > World Clock > Weather > Italy > Turin > Past weeks

Flag for Italy Weather past 2 weeks in Turin, Italy

Now
68 °F

Clear.


Feels Like: 68 °F
Forecast: 58 / 79 °F
Wind: No wind

Location: Torino / Bric Della Croce

Current Time: Aug 28, 2014 at 4:04:48 AM

Latest Report: Aug 28, 2014 at 2:55 AM


Visibility: 10 mi

Pressure: 29.98 "Hg

Humidity: 56%

Dew point: 52 °F

Location of TurinLocation

Historic Weather in Turin — Graph

°F

Turin temperature yesterday

Maximum temperature yesterday: 73 °F (at 4:55 PM)
Minimum temperature yesterday: 61 °F (at 4:55 AM)
Average temperature yesterday: 67 °F

Past Weeks' High & Low Weather Summary

 TemperatureHumidityPressure
High73 °F (Aug 14, 5:55 PM)100% (Aug 13, 2:55 AM)30.09 "Hg (Aug 13, 2:55 AM)
Low57 °F (Aug 15, 6:55 AM)27% (Aug 15, 1:55 AM)29.74 "Hg (Aug 13, 1:55 PM)
Average64 °F80%29.95 "Hg
* Reported Aug 13 2:55 AM — Aug 28 2:55 AM, Turin, Weather by CustomWeather, © 2014

Note: Actual official high and low records may vary slightly from our data, if they occured in-between our weather recording intervals... More about our weather records

Advertising

Turin weather history for previous 24 hours

 ConditionsComfort  
Time TempWeatherWind HumidityBarometerVisibility
2:55 AM
Aug 28
68 °FClear.No wind56%29.98 "Hg10 mi
1:55 AM68 °FClear.No wind53%29.95 "Hg10 mi
12:55 AM70 °FClear.No wind53%29.95 "Hg10 mi
11:55 PM
Aug 27
70 °FClear.No wind50%29.95 "Hg10 mi
10:55 PM68 °FClear.No wind53%29.95 "Hg10 mi
9:55 PM72 °FClear.No wind44%29.95 "Hg10 mi
8:55 PM72 °FSunny.No wind50%29.92 "Hg10 mi
7:55 PM73 °FSunny.No wind41%29.92 "Hg10 mi
6:55 PM73 °FSunny.No wind44%29.92 "Hg10 mi
5:55 PM73 °FSunny.No wind44%29.92 "Hg10 mi
4:55 PM73 °FSunny.No wind47%29.92 "Hg10 mi
3:55 PM72 °FSunny.No wind61%29.92 "Hg10 mi
2:55 PM70 °FPassing clouds.2 mph69%29.92 "HgN/A
1:55 PM68 °FPassing clouds.No wind78%29.92 "HgN/A
12:55 PM66 °FPassing clouds.No wind88%29.89 "Hg5 mi
11:55 AM64 °FFog.No wind94%29.89 "Hg2 mi
10:55 AM64 °FFog.No wind94%29.89 "Hg1 mi
9:55 AM63 °FFog.3 mph100%29.89 "Hg2 mi
8:55 AM63 °FFog.No wind94%29.86 "Hg2 mi
7:55 AM61 °FClear.No wind100%29.86 "Hg4 mi
6:55 AM61 °FPassing clouds.No wind94%29.86 "Hg4 mi
5:55 AM61 °FPassing clouds.No wind100%29.86 "Hg4 mi
4:55 AM61 °FFog.No wind100%29.86 "Hg0 mi
Weather by CustomWeather, © 2014

See weather overviewHow to use our weather pages